Theta_e
310 309 309 308 307 307 305 304 303 303 299 299 302 299 301 299 301 302 301 302 300 299 299 299 299 300 304 307 308 308 307 306 306 305 305 305 305 305 305 304 305 305
309 308 305 304 302 301 302 304 302 303 301 300 301 300 297 299 298 300 300 299 298 298 298 299 299 299 303 304 302 302 301 304 304 305 303 302 303 302 302 302 303 303
307 306 306 306 305 302 301 301 302 301 301 299 298 298 298 297 298 297 297 298 297 297 297 297 298 298 299 298 298 298 298 297 298 297 297 296 296 297 296 297 298 299
305 306 306 305 304 302 302 302 300 299 299 298 296 297 298 296 296 296 295 295 296 295 295 296 295 295 295 294 294 294 293 293 292 291 291 289 290 290 291 291 292 292
303 303 304 303 302 302 302 301 299 298 298 296 295 295 296 295 295 293 292 291 293 291 292 292 293 292 292 292 292 291 290 289 289 288 287 286 286 288 290 288 287 288
302 303 302 302 300 300 299 298 297 297 296 295 294 293 293 292 291 291 290 290 289 290 289 289 290 289 289 289 288 288 286 288 285 286 286 286 287 285 287 286 286 287
301 301 299 298 297 296 296 295 294 294 294 292 291 290 289 290 290 290 290 289 289 288 289 288 289 287 286 286 286 286 285 285 285 285 286 285 285 286 284 284 285 287
298 297 296 296 295 294 293 292 291 291 289 290 290 288 289 289 290 288 288 289 289 289 288 287 288 289 285 286 286 286 285 285 283 285 285 285 284 286 286 285 284 285
294 292 292 292 292 290 290 290 289 288 288 290 289 288 287 288 288 288 288 288 287 286 288 287 287 286 285 286 285 285 286 285 284 285 286 286 285 285 285 284 284 284
291 290 290 290 290 289 289 288 288 288 287 288 288 288 288 286 287 288 287 287 287 287 287 286 287 286 285 284 286 285 286 287 286 285 285 286 286 285 284 283 283 283
289 289 289 288 288 288 287 287 287 287 287 287 287 287 287 287 287 286 287 288 288 287 287 287 286 285 286 286 285 284 286 286 286 285 285 285 285 284 285 283 283 283
288 288 288 288 287 287 287 287 287 287 286 286 287 287 286 286 287 286 287 287 286 286 286 285 285 285 285 284 284 284 283 283 283 284 284 284 283 283 283 283 283 283
287 287 287 287 287 286 286 286 286 286 286 286 285 286 286 286 285 285 284 286 285 286 286 286 285 284 284 283 284 284 284 283 283 282 283 282 283 282 282 283 282 283
286 286 286 286 286 286 286 285 285 285 285 285 285 285 285 285 285 285 284 285 284 285 284 284 284 283 283 283 283 283 283 283 282 282 281 281 281 281 281 281 282 281
285 285 285 285 285 285 285 285 285 284 284 285 285 285 285 284 284 284 284 284 284 284 284 284 284 284 284 284 284 284 283 283 282 282 281 281 281 281 281 281 281 281
285 285 285 285 285 285 284 284 284 284 284 284 284 284 283 283 284 283 284 284 283 283 282 283 283 283 285 289 290 285 284 283 283 282 281 280 280 280 280 281 281 280
285 284 284 284 284 284 283 283 283 283 283 283 283 282 283 282 283 283 282 282 282 282 282 282 283 283 288 290 290 290 286 283 282 282 281 280 280 279 279 279 279 280
284 284 284 283 283 283 283 283 283 283 282 282 282 282 281 282 282 282 282 282 282 282 282 282 282 286 288 288 289 289 289 284 281 281 281 280 279 278 279 278 278 279
283 283 283 283 283 282 282 282 282 282 281 281 281 280 281 281 281 281 281 281 282 281 281 281 280 286 287 288 288 288 289 286 281 280 279 279 278 277 277 277 277 278
283 283 282 282 282 282 281 281 281 281 280 280 280 280 281 280 280 280 281 281 281 280 280 280 280 285 286 287 287 288 287 285 279 279 278 278 277 277 277 277 277 277
282 282 282 281 281 281 281 281 281 280 280 280 280 280 280 280 280 280 280 279 279 279 279 279 280 284 285 286 286 287 286 284 278 279 277 277 277 277 276 276 277 278
282 282 282 281 281 281 281 280 280 280 280 279 278 278 278 278 278 279 278 278 278 278 278 278 279 283 284 285 285 286 285 279 277 277 276 276 276 276 277 277 277 277
282 282 281 281 280 280 280 280 279 278 278 277 278 278 278 278 277 277 277 277 277 277 277 277 277 280 283 284 284 285 282 275 275 273 274 275 276 277 277 277 277 278
282 281 281 280 280 280 279 279 278 278 278 277 278 278 277 277 277 277 277 277 276 276 277 276 275 278 282 283 283 284 282 275 274 273 272 274 277 278 279 279 280 281
281 280 280 279 279 279 278 278 278 278 277 276 276 276 276 276 276 276 276 277 277 276 278 276 276 277 280 282 283 283 281 274 274 272 273 276 278 278 279 279 280 280
280 279 279 279 278 277 277 277 277 276 276 275 275 274 275 275 275 276 276 277 277 276 276 277 276 276 277 281 281 282 282 277 273 273 275 277 278 278 278 278 279 278
Wind_Speed
7 7 8 7 6 6 7 6 5 5 4 4 5 3 4 3 3 4 4 4 4 3 3 3 3 4 4 4 4 5 4 4 4 3 4 4 4 4 4 4 4 3
7 7 6 6 5 4 4 5 6 6 5 5 5 5 3 4 4 5 5 5 4 4 4 4 4 4 4 4 3 4 4 4 4 3 4 5 4 4 5 5 4 4
7 7 8 7 8 6 6 5 6 6 6 5 5 4 5 4 5 4 4 4 5 4 5 5 5 5 5 4 5 5 5 6 6 4 6 4 4 4 3 3 3 3
6 7 8 7 8 8 7 8 6 6 6 6 4 4 5 4 5 5 5 4 5 5 5 6 5 4 4 4 5 5 5 6 4 4 5 3 3 3 3 2 2 2
7 7 6 7 7 8 7 9 7 6 6 6 5 5 6 6 6 6 5 5 6 5 5 5 5 5 4 5 5 5 5 5 4 4 4 4 3 3 2 3 3 3
6 7 7 8 7 8 7 7 7 7 7 6 6 5 5 5 5 6 6 6 5 6 6 5 6 4 4 5 5 6 4 5 3 4 4 3 3 3 2 3 3 4
7 7 7 7 7 7 8 7 6 6 6 6 5 5 5 6 6 6 6 6 6 6 6 5 6 5 4 5 6 5 4 4 3 3 3 3 2 3 3 4 5 5
7 5 7 7 8 7 8 6 6 6 6 5 6 4 5 6 6 5 5 6 6 5 5 5 5 5 4 5 5 5 4 3 3 3 3 3 4 5 5 4 4 4
7 6 7 7 9 6 7 7 6 5 5 7 6 5 5 5 6 6 6 6 6 6 6 5 5 5 5 5 4 4 3 3 2 3 3 4 4 3 3 3 3 4
8 7 8 8 8 7 8 6 7 6 6 7 6 6 8 5 5 6 6 6 7 6 5 5 6 5 5 5 4 3 3 3 3 3 2 1 1 2 3 3 3 4
8 7 8 8 8 7 8 7 7 7 6 7 7 7 6 7 6 5 6 6 7 6 6 6 5 5 5 5 4 3 2 1 1 0 0 0 0 1 3 2 3 4
8 8 9 8 8 8 8 7 7 7 7 5 7 8 6 6 7 5 6 6 6 5 5 5 5 5 5 4 3 2 2 1 1 1 1 1 1 1 2 2 3 4
8 8 8 8 8 8 7 7 7 7 7 7 5 7 8 7 5 7 4 6 5 5 6 5 5 5 4 3 1 1 0 1 1 1 2 2 2 3 3 3 3 3
8 8 8 8 7 7 7 7 7 7 7 6 6 8 7 7 7 7 5 5 5 6 5 5 5 4 3 1 0 0 0 1 1 2 3 3 3 3 3 3 4 4
8 6 6 7 7 8 8 7 7 6 6 6 7 7 6 6 5 5 6 6 6 6 5 4 4 3 1 1 1 1 1 2 3 3 3 3 4 4 4 4 4 4
8 7 8 7 8 8 7 7 6 6 7 7 6 6 5 5 5 5 6 6 6 5 4 4 3 2 4 6 5 3 3 3 3 3 3 3 3 4 4 4 4 4
8 8 8 9 8 8 7 8 8 7 7 7 5 5 5 4 5 6 6 5 5 4 4 4 3 3 8 8 8 8 4 3 3 4 4 3 3 3 4 4 4 4
9 9 9 8 8 8 8 7 8 8 7 6 6 6 4 4 6 5 5 4 5 5 5 4 4 6 8 9 9 9 7 3 3 3 3 3 3 3 3 3 3 4
9 9 9 8 7 7 7 7 8 7 7 6 6 4 4 6 4 5 5 5 5 6 5 4 3 6 9 9 9 9 8 5 3 2 3 3 3 3 3 3 3 4
9 9 9 8 8 7 7 7 7 7 5 5 5 5 6 5 5 6 5 6 5 5 4 3 3 6 9 10 9 8 7 6 2 3 2 3 3 3 3 3 4 4
9 9 10 9 8 8 7 7 7 7 6 5 5 5 5 5 5 5 5 4 5 4 4 3 3 8 9 9 8 7 7 5 2 2 2 2 3 3 3 3 4 4
11 10 10 9 9 8 8 8 7 6 7 5 6 5 5 5 4 5 4 4 3 3 4 3 4 9 9 9 8 8 7 2 1 2 2 3 3 3 3 4 4 4
10 11 11 10 9 10 9 8 8 7 5 4 7 6 6 5 4 3 3 3 3 3 3 2 3 6 9 9 9 9 4 2 2 2 2 3 3 3 3 3 4 5
9 10 11 10 9 10 9 7 6 5 5 4 7 7 6 4 3 4 3 3 3 3 2 2 2 6 9 9 9 10 7 3 3 2 2 2 3 3 4 4 5 8
9 9 10 10 10 9 8 9 7 7 6 6 6 6 5 4 3 4 4 4 3 2 4 3 3 5 9 9 9 10 6 2 4 3 3 3 3 4 5 5 6 6
7 9 9 10 10 9 7 7 6 7 6 7 6 5 5 5 4 4 4 3 3 3 4 3 4 4 6 10 9 9 11 5 3 3 4 6 5 5 5 5 6 7
Wind_Direction
152 155 152 156 160 160 155 149 154 138 124 122 122 139 128 140 134 114 107 92 94 98 93 86 77 78 86 91 94 82 87 81 87 77 57 49 37 29 16 9 6 18
150 142 136 129 120 123 131 139 143 132 129 122 123 125 122 110 90 106 109 102 88 88 85 80 74 79 82 81 90 94 80 69 59 40 51 39 22 25 21 12 8 358
135 135 139 141 140 133 124 117 120 121 122 118 116 113 113 101 97 79 91 101 91 76 69 70 67 60 68 72 71 69 69 60 48 39 67 60 46 54 36 30 32 23
127 132 131 128 127 124 122 111 103 106 109 112 118 120 113 107 102 97 89 88 91 76 69 64 67 59 64 67 78 71 79 74 63 68 70 54 49 63 31 40 32 11
125 117 116 114 111 116 117 116 122 122 119 125 122 122 116 112 104 100 97 85 89 83 73 72 63 58 59 59 68 71 60 69 42 67 76 54 360 39 12 44 10 350
93 105 111 117 123 123 119 121 129 127 127 122 127 114 108 112 111 112 109 102 95 96 89 82 76 61 67 70 66 66 64 60 36 63 68 66 12 2 18 25 11 350
113 112 112 112 109 113 114 117 120 119 117 126 113 109 118 108 109 109 106 104 99 92 93 91 87 75 64 75 70 66 48 59 44 56 61 31 44 13 15 23 3 349
114 112 115 112 110 109 111 115 116 115 124 109 105 121 109 110 104 104 101 98 94 92 86 82 82 81 68 73 72 63 42 33 50 44 46 28 32 13 359 5 358 334
116 114 114 112 110 112 114 115 114 113 114 112 115 111 92 100 109 102 101 97 90 88 86 79 76 76 65 79 81 83 68 35 45 55 50 29 16 352 331 331 336 314
117 119 114 118 118 123 121 119 116 114 115 112 117 108 103 97 99 106 98 97 96 89 86 83 72 70 67 68 74 76 58 38 19 33 43 40 3 319 321 333 320 326
123 124 123 124 125 125 122 121 119 119 114 119 115 105 110 110 95 93 99 96 96 96 88 79 77 74 70 57 49 49 61 40 1 354 261 310 273 287 300 321 328 325
131 129 131 132 130 127 128 127 124 120 119 111 118 117 109 100 105 93 102 100 94 94 92 86 78 71 68 60 43 29 22 346 312 299 289 295 314 326 334 327 324 315
138 137 135 134 132 131 128 124 122 126 121 121 126 118 113 108 103 99 87 97 94 88 78 75 70 67 65 56 38 5 302 293 298 304 330 350 351 341 337 327 315 306
139 137 134 133 132 128 126 127 126 123 122 126 121 107 107 110 112 107 103 91 86 81 71 72 74 72 67 65 251 247 262 290 305 336 342 346 344 337 335 323 314 309
134 131 128 129 127 126 127 126 122 121 119 112 103 101 98 105 106 107 103 86 71 73 70 69 88 87 83 24 19 336 336 338 331 334 337 338 334 334 331 325 314 304
136 134 134 132 129 128 126 122 119 113 104 95 90 95 100 103 98 86 85 87 85 73 80 91 91 82 17 19 15 8 351 343 337 328 332 331 329 325 319 312 302 297
138 140 139 136 136 128 129 125 118 112 101 97 94 91 94 91 91 84 80 82 87 87 77 68 58 30 14 14 7 360 5 351 338 326 328 323 312 304 302 307 303 300
145 142 136 137 135 132 128 122 115 111 111 113 111 102 93 88 76 82 78 71 72 69 63 49 33 9 10 7 1 357 351 3 355 330 309 304 294 293 290 296 301 305
146 140 136 134 132 128 124 117 115 113 115 114 110 115 99 81 79 73 66 61 62 55 46 34 27 358 6 1 356 354 2 41 355 314 300 290 296 299 301 307 310 310
145 140 136 135 133 127 124 121 118 117 114 113 113 97 92 86 68 67 59 55 54 56 42 27 20 354 1 357 359 2 12 17 317 301 297 303 311 314 318 323 319 324
146 142 137 137 134 130 126 123 122 119 112 110 104 98 92 84 71 66 54 56 49 49 50 23 4 357 358 1 2 359 15 3 304 298 316 325 315 315 317 316 318 315
149 144 141 140 138 135 132 129 124 125 123 120 104 92 83 87 64 63 55 47 46 52 50 25 352 356 359 4 2 0 16 335 321 344 344 334 329 327 327 323 326 328
154 147 145 144 144 139 137 136 132 125 116 115 103 94 91 79 83 76 74 60 41 44 50 20 5 348 359 5 1 359 19 350 358 359 339 344 339 323 326 329 324 326
156 151 146 146 148 145 140 133 122 111 110 108 114 115 99 96 91 80 64 68 57 31 45 47 14 349 358 2 0 2 19 10 352 359 341 340 337 332 337 322 310 318
152 151 147 147 144 142 140 137 134 127 119 103 99 98 102 103 87 84 73 61 66 50 26 48 26 357 349 2 3 6 17 22 3 347 335 347 346 341 334 323 328 331
148 146 146 144 140 133 130 126 126 118 114 109 98 100 106 96 91 88 94 80 71 58 39 39 28 356 339 359 8 10 12 18 339 344 349 349 349 339 333 337 335 332